Flag for U.S.A. Weather past 2 weeks in Springfield, Missouri, U.S.A.

Now
71 °F

Clear.


Feels Like: 70 °F
Forecast: 70 / 87 °F
Wind: 8 mph from South

Location: Springfield Regional Airport

Current Time: Sep 1, 2015 at 5:27:08 AM

Latest Report: Sep 1, 2015 at 4:52 AM


Visibility: 9 mi

Pressure: 30.03 "Hg

Humidity: 84%

Dew point: 66 °F

Location of SpringfieldLocation

Historic Weather in Springfield — Graph

°F

Springfield temperature yesterday

Maximum temperature yesterday: 88 °F (at 1:52 PM)
Minimum temperature yesterday: 71 °F (at 4:52 AM)
Average temperature yesterday: 79 °F

Past Weeks' High & Low Weather Summary

 TemperatureHumidityPressure
High88 °F (Aug 31, 1:52 PM)94% (Aug 19, 7:52 AM)30.18 "Hg (Aug 19, 7:52 AM)
Low53 °F (Aug 20, 6:52 AM)36% (Aug 24, 2:52 PM)29.67 "Hg (Aug 18, 6:52 PM)
Average71 °F73%30.00 "Hg
* Reported Aug 17 3:52 AM — Sep 1 3:52 AM, Springfield, Weather by CustomWeather, © 2015

Note: Actual official high and low records may vary slightly from our data, if they occured in-between our weather recording intervals... More about our weather records

Advertising

Springfield weather history for previous 24 hours

 ConditionsComfort  
Time TempWeatherWind HumidityBarometerVisibility
3:52 AM
Tue, Sep 1
71 °FClear.10 mph84%30.03 "Hg9 mi
2:52 AM72 °FClear.10 mph84%30.02 "Hg9 mi
1:52 AM73 °FClear.9 mph84%30.02 "Hg10 mi
12:52 AM73 °FClear.8 mph84%30.03 "Hg10 mi
11:52 PM
Mon, Aug 31
74 °FClear.9 mph82%30.02 "Hg10 mi
9:52 PM75 °FClear.8 mph79%30.01 "Hg10 mi
8:52 PM78 °FClear.9 mph74%29.99 "Hg10 mi
7:52 PM80 °FSunny.8 mph64%29.99 "Hg10 mi
6:52 PM83 °FSunny.9 mph59%29.98 "Hg10 mi
5:52 PM87 °FSunny.12 mph51%29.98 "Hg10 mi
4:52 PM88 °FSunny.12 mph50%29.97 "Hg10 mi
3:52 PM88 °FSunny.12 mph52%29.97 "Hg10 mi
2:52 PM88 °FSunny.8 mph50%29.99 "Hg10 mi
1:52 PM88 °FSunny.14 mph52%30.00 "Hg10 mi
12:52 PM86 °FSunny.12 mph57%30.01 "Hg10 mi
11:52 AM84 °FSunny.13 mph61%30.03 "Hg10 mi
10:52 AM82 °FSunny.13 mph65%30.03 "Hg10 mi
9:52 AM79 °FSunny.14 mph69%30.03 "Hg10 mi
8:52 AM75 °FSunny.10 mph79%30.02 "Hg10 mi
7:52 AM72 °FPassing clouds.9 mph84%30.01 "Hg9 mi
6:52 AM71 °FPassing clouds.10 mph87%30.00 "Hg8 mi
5:52 AM71 °FClear.10 mph87%29.98 "Hg10 mi
Weather by CustomWeather, © 2015

See weather overviewHow to use our weather pages